Burns Flat, OK

7:09 PM CST on February 07, 2016 (GMT -0600)
Clinton-Sherman

Weather History for KCSM - January, 2014

Change the Weather History Date:

Friday, January 10, 2014

  Actual Average (WUND) Record (WUND)
Temperature  
Mean Temperature 46 °F -  
Max Temperature 55 °F - - (-1)
Min Temperature 36 °F - - (-1)
Degree Days  
Heating Degree Days 20    
Moisture  
Dew Point 32 °F    
Average Humidity 73    
Maximum Humidity 100    
Minimum Humidity 26    
Precipitation  
Precipitation 0.00 in - - ()
Sea Level Pressure  
Sea Level Pressure 29.77 in    
Wind  
Wind Speed 17 mph (WSW)    
Max Wind Speed 22 mph    
Max Gust Speed 30 mph    
Visibility 6 miles    
Events Fog , Rain    
Averages and records for this station are not official NWS values.
T = Trace of Precipitation, MM = Missing Value Source: NWS Daily Summary

Daily Weather History Graph

Daily Weather History Graph

Search for Another Location

Airport or City:

Trip Planner

Search our weather history database for the weather conditions in past years. The results will help you decide how hot, cold, wet, or windy it might be!

Date:

Astronomy

Jan. 10, 2014 Rise Set
Actual Time 7:46 AM CST 5:43 PM CST
Civil Twilight 7:18 AM CST 6:10 PM CST
Nautical Twilight 6:46 AM CST 6:42 PM CST
Astronomical Twilight 6:16 AM CST 7:13 PM CST
Moon 1:45 PM CST (1/10) 2:58 AM CST (1/10)
Length of Visible Light 10h 52m
Length of Day
9h 56m
Waxing Gibbous, 75% of the Moon is Illuminated
Jan 10
Waxing Gibbous
Jan 15
Full
Jan 23
Last Quarter
Jan 30
New
Feb 6
First Quarter

Hourly Weather History & Observations

Time (CST) Temp. Windchill Dew Point Humidity Pressure Visibility Wind Dir Wind Speed Gust Speed Precip Events Conditions
12:53 AM 36.0 °F 26.0 °F 36.0 °F 100% 29.91 in 0.2 mi South 17.3 mph - 0.00 in Fog , Rain Light Rain
1:53 AM 37.0 °F 27.4 °F 37.0 °F 100% 29.86 in 0.2 mi South 17.3 mph - 0.00 in Fog , Rain Light Rain
2:53 AM 37.0 °F 28.5 °F 37.0 °F 100% 29.84 in 0.2 mi South 13.8 mph - 0.00 in Fog , Rain Light Rain
3:53 AM 37.9 °F 28.5 °F 37.9 °F 100% 29.81 in 0.2 mi SSW 17.3 mph - 0.00 in Fog , Rain Light Rain
4:53 AM 39.0 °F 29.3 °F 39.0 °F 100% 29.76 in 0.2 mi South 19.6 mph - 0.00 in Fog , Rain Light Rain
5:53 AM 39.9 °F 30.8 °F 39.9 °F 100% 29.75 in 0.2 mi SSW 18.4 mph - 0.00 in Fog , Rain Light Rain
6:42 AM 41.0 °F 31.4 °F 41.0 °F 100% 29.72 in 0.5 mi SSW 21.9 mph - 0.00 in Fog , Rain Light Rain
6:53 AM 41.0 °F 31.4 °F 41.0 °F 100% 29.73 in 0.5 mi SSW 21.9 mph - 0.00 in Fog , Rain Light Rain
7:53 AM 41.0 °F 31.6 °F 41.0 °F 100% 29.75 in 0.5 mi SSW 20.7 mph - 0.00 in Fog , Rain Light Rain
8:53 AM 41.0 °F 31.9 °F 41.0 °F 100% 29.74 in 0.5 mi SSW 19.6 mph - 0.00 in Fog , Rain Light Rain
9:07 AM 41.0 °F 31.6 °F 41.0 °F 100% 29.73 in 0.8 mi SW 20.7 mph - 0.00 in Rain Light Rain
9:14 AM 41.0 °F 31.4 °F 41.0 °F 100% 29.73 in 1.0 mi SW 21.9 mph - 0.00 in Rain Light Rain
9:35 AM 41.0 °F 31.4 °F 41.0 °F 100% 29.74 in 3.0 mi SW 21.9 mph - 0.00 in Rain Light Rain
9:53 AM 42.1 °F 33.1 °F 41.0 °F 96% 29.75 in 4.0 mi SW 20.7 mph - 0.00 in   Mostly Cloudy
10:15 AM 44.6 °F 37.4 °F 42.8 °F 93% 29.76 in 6.0 mi WSW 16.1 mph - N/A   Scattered Clouds
10:38 AM 44.6 °F 37.8 °F 41.0 °F 87% 29.76 in 9.0 mi West 15.0 mph - N/A   Clear
10:53 AM 46.9 °F - 39.9 °F 77% 29.77 in 10.0 mi West 18.4 mph 21.9 mph N/A   Clear
11:53 AM 52.0 °F - 30.9 °F 45% 29.73 in 10.0 mi NNW 19.6 mph 29.9 mph N/A   Clear
12:53 PM 54.0 °F - 28.0 °F 37% 29.69 in 10.0 mi NNW 17.3 mph - N/A   Clear
1:53 PM 55.0 °F - 25.0 °F 31% 29.68 in 10.0 mi NW 19.6 mph - N/A   Clear
2:53 PM 55.9 °F - 24.1 °F 29% 29.69 in 10.0 mi NW 16.1 mph - N/A   Clear
3:53 PM 55.9 °F - 21.0 °F 26% 29.70 in 10.0 mi WNW 13.8 mph - N/A   Clear
4:53 PM 54.0 °F - 19.9 °F 26% 29.74 in 10.0 mi WNW 11.5 mph - N/A   Clear
5:53 PM 42.1 °F 38.4 °F 21.9 °F 45% 29.75 in 10.0 mi WSW 5.8 mph - N/A   Clear
6:53 PM 37.9 °F 32.7 °F 21.0 °F 51% 29.77 in 10.0 mi WSW 6.9 mph - N/A   Clear
7:53 PM 36.0 °F 30.3 °F 21.9 °F 57% 29.79 in 10.0 mi WSW 6.9 mph - N/A   Clear
8:53 PM 36.0 °F 29.6 °F 21.0 °F 55% 29.82 in 10.0 mi WSW 8.1 mph - N/A   Clear
9:53 PM 37.9 °F 32.1 °F 21.9 °F 53% 29.85 in 10.0 mi WNW 8.1 mph - N/A   Clear
10:53 PM 36.0 °F 28.5 °F 18.0 °F 48% 29.86 in 10.0 mi West 10.4 mph - N/A   Clear
11:53 PM 37.0 °F 29.3 °F 17.1 °F 44% 29.86 in 10.0 mi West 11.5 mph - N/A   Clear